23/12/2011,00:00:08,   0.0,  4.7,  199,+12.5,  92.5,    7.2,  +10.8,  +93.4,  +38.7,+1100.00,4B
23/12/2011,00:00:26,   0.0,  3.7,  187,+12.4,  92.6,    7.4,  +10.9,  +93.1,  +38.9,+1100.00,49
23/12/2011,00:00:44,   0.0,  7.1,  204,+12.5,  92.6,    7.6,  +10.9,  +93.4,  +38.7,+1100.00,41
23/12/2011,00:01:02,   0.0,  6.0,  193,+12.5,  92.6,    7.4,  +11.0,  +93.4,  +38.8,+1100.00,38
23/12/2011,00:01:28,   0.0,  7.5,  206,+12.5,  92.6,    7.9,  +11.0,  +94.3,  +39.0,+1100.00,3F
23/12/2011,00:01:46,   0.0,  8.6,  169,+12.5,  92.6,    7.8,  +11.1,  +94.0,  +39.0,+1100.00,46
23/12/2011,00:02:04,   0.0,  6.4,  221,+12.5,  92.6,    7.8,  +11.0,  +93.9,  +38.8,+1100.00,40
23/12/2011,00:02:22,   0.0,  7.5,  202,+12.5,  92.5,    7.5,  +11.0,  +93.7,  +39.1,+1100.00,35
23/12/2011,00:02:48,   0.0,  3.1,  194,+12.4,  92.5,    7.5,  +11.0,  +94.3,  +39.4,+1100.00,3E
23/12/2011,00:03:06,   0.0,  6.8,  216,+12.5,  92.6,    7.6,  +10.9,  +93.6,  +39.0,+1100.00,47
23/12/2011,00:03:24,   0.0,  7.6,  176,+12.4,  92.6,    7.8,  +11.0,  +93.5,  +39.0,+1100.00,43
23/12/2011,00:03:42,   0.0,  7.1,  216,+12.5,  92.6,    7.6,  +10.9,  +93.5,  +39.2,+1100.00,42
23/12/2011,00:04:08,   0.0,  5.9,  208,+12.5,  92.6,    7.5,  +11.0,  +94.1,  +39.0,+1100.00,3E
23/12/2011,00:04:26,   0.0,  5.2,  172,+12.4,  92.6,    7.5,  +11.1,  +94.0,  +38.9,+1100.00,3E
23/12/2011,00:04:44,   0.0,  8.7,  202,+12.5,  92.5,    7.7,  +10.9,  +94.0,  +39.1,+1100.00,42
23/12/2011,00:05:02,   0.0,  6.7,  197,+12.4,  92.5,    7.5,  +11.0,  +94.0,  +39.1,+1100.00,3D
23/12/2011,00:05:28,   0.0,  5.4,  211,+12.5,  92.6,    7.9,  +11.1,  +94.5,  +39.4,+1100.00,43
23/12/2011,00:05:46,   0.0,  6.2,  211,+12.5,  92.6,    7.5,  +11.2,  +94.0,  +39.0,+1100.00,36
23/12/2011,00:06:04,   0.0,  6.6,  212,+12.5,  92.5,    7.8,  +10.9,  +93.8,  +39.1,+1100.00,46
23/12/2011,00:06:22,   0.0,  6.9,  177,+12.5,  92.5,    7.4,  +11.0,  +93.2,  +39.0,+1100.00,40
23/12/2011,00:06:48,   0.0,  5.2,  187,+12.5,  92.5,    7.8,  +10.9,  +93.7,  +39.0,+1100.00,52
23/12/2011,00:07:06,   0.0,  6.8,  190,+12.5,  92.5,    7.7,  +11.1,  +93.6,  +38.9,+1100.00,4D
23/12/2011,00:07:24,   0.0,  6.7,  170,+12.5,  92.4,    7.7,  +11.1,  +94.4,  +39.1,+1100.00,41
23/12/2011,00:07:42,   0.0,  5.6,  187,+12.5,  92.4,    7.5,  +11.0,  +93.8,  +39.3,+1100.00,49
23/12/2011,00:08:08,   0.0,  9.6,  210,+12.5,  92.4,    7.9,  +10.9,  +93.9,  +39.2,+1100.00,4F
23/12/2011,00:08:26,   0.0,  9.4,  202,+12.5,  92.1,    7.5,  +11.1,  +94.1,  +39.1,+1100.00,38
23/12/2011,00:08:44,   0.0,  5.4,  186,+12.5,  92.1,    7.7,  +10.9,  +93.9,  +39.1,+1100.00,4F
23/12/2011,00:09:02,   0.0,  5.1,  198,+12.5,  92.1,    7.6,  +11.0,  +93.5,  +38.7,+1100.00,42
23/12/2011,00:09:28,   0.0,  7.9,  193,+12.5,  92.2,    7.7,  +10.9,  +93.4,  +39.0,+1100.00,52
23/12/2011,00:09:46,   0.0,  6.7,  168,+12.5,  92.1,    7.9,  +11.0,  +93.5,  +38.9,+1100.00,53
23/12/2011,00:10:04,   0.0, 10.2,  182,+12.5,  92.1,    7.8,  +11.1,  +92.9,  +38.7,+1100.00,48
23/12/2011,00:10:22,   0.0,  7.1,  213,+12.5,  92.1,    7.6,  +11.1,  +92.6,  +38.8,+1100.00,34
23/12/2011,00:10:48,   0.0,  3.7,  163,+12.5,  92.0,    7.4,  +11.0,  +92.8,  +38.0,+1100.00,38
23/12/2011,00:11:06,   0.0,  6.4,  165,+12.5,  92.1,    7.7,  +11.5,  +93.8,  +37.4,+1100.00,42
23/12/2011,00:11:24,   0.0,  6.2,  202,+12.5,  92.0,    7.5,  +10.9,  +92.2,  +38.4,+1100.00,32
23/12/2011,00:11:42,   0.0,  4.4,  199,+12.5,  92.0,    7.7,  +11.0,  +92.8,  +38.2,+1100.00,3F
23/12/2011,00:12:08,   0.0,  3.3,  201,+12.5,  92.0,    7.4,  +10.9,  +92.5,  +38.8,+1100.00,38
23/12/2011,00:12:26,   0.0,  5.7,  196,+12.5,  92.0,    7.7,  +10.9,  +92.4,  +38.6,+1100.00,4B
23/12/2011,00:12:43,   0.0,  6.6,  191,+12.5,  92.0,    7.4,  +11.1,  +93.3,  +38.1,+1100.00,36
23/12/2011,00:13:09,   0.0,  6.7,  223,+12.6,  92.1,    8.0,  +11.1,  +93.0,  +38.7,+1100.00,38
23/12/2011,00:13:27,   0.0,  4.7,  199,+12.5,  92.1,    7.3,  +10.5,  +92.6,  +38.7,+1100.00,4B
23/12/2011,00:13:45,   0.0,  6.4,  169,+12.5,  92.0,    7.5,  +10.9,  +92.6,  +38.6,+1100.00,4B
23/12/2011,00:14:03,   0.0,  5.1,  205,+12.6,  92.0,    7.6,  +11.0,  +93.1,  +38.9,+1100.00,32
23/12/2011,00:14:29,   0.0, 11.7,  193,+12.5,  92.0,    7.7,  +10.8,  +94.0,  +39.3,+1100.00,55
23/12/2011,00:14:47,   0.0,  7.8,  200,+12.6,  91.9,    7.5,  +11.0,  +93.7,  +39.2,+1100.00,45
23/12/2011,00:15:05,   0.0,  5.4,  197,+12.6,  91.9,    7.6,  +11.0,  +94.1,  +38.2,+1100.00,44
23/12/2011,00:15:23,   0.0,  4.8,  190,+12.5,  91.9,    7.7,  +11.1,  +94.2,  +38.6,+1100.00,46
23/12/2011,00:15:49,   0.0,  8.0,  186,+12.5,  91.9,    7.5,  +10.9,  +94.3,  +38.4,+1100.00,53
23/12/2011,00:16:07,   0.0,  9.0,  213,+12.5,  91.9,    7.4,  +11.0,  +93.9,  +38.8,+1100.00,46
23/12/2011,00:16:25,   0.0,  4.1,  190,+12.6,  91.8,    7.6,  +11.1,  +94.4,  +39.3,+1100.00,41
23/12/2011,00:16:43,   0.0,  6.6,  204,+12.6,  91.8,    7.7,  +11.1,  +94.2,  +38.8,+1100.00,47
23/12/2011,00:17:09,   0.0,  6.1,  202,+12.6,  91.8,    7.5,  +10.9,  +93.5,  +39.1,+1100.00,44
23/12/2011,00:17:27,   0.0,  4.5,  211,+12.6,  91.8,    7.9,  +11.1,  +93.8,  +38.4,+1100.00,48
23/12/2011,00:17:44,   0.0,  5.3,  176,+12.5,  91.7,    7.5,  +11.0,  +93.4,  +38.1,+1100.00,42
23/12/2011,00:18:02,   0.0,  5.3,  222,+12.6,  91.8,    7.5,  +10.8,  +93.8,  +38.4,+1100.00,45
23/12/2011,00:18:28,   0.0,  4.1,  195,+12.6,  91.7,    7.4,  +10.9,  +94.1,  +39.0,+1100.00,49
23/12/2011,00:18:46,   0.0,  6.8,  173,+12.5,  91.7,    7.5,  +10.9,  +93.9,  +38.4,+1100.00,58
23/12/2011,00:19:04,   0.0,  7.1,  194,+12.6,  91.7,    7.8,  +10.9,  +93.5,  +38.6,+1100.00,52
23/12/2011,00:19:29,   0.0,  4.7,  195,+12.6,  91.7,    7.6,  +10.9,  +93.9,  +39.1,+1100.00,5B
23/12/2011,00:19:47,   0.0,  4.0,  190,+12.6,  91.7,    7.5,  +10.9,  +94.0,  +38.3,+1100.00,47
23/12/2011,00:20:05,   0.0,  4.8,  189,+12.5,  91.8,    7.5,  +11.0,  +94.1,  +38.5,+1100.00,44
23/12/2011,00:20:23,   0.0,  6.7,  203,+12.6,  91.8,    7.7,  +11.0,  +93.7,  +38.2,+1100.00,3D
23/12/2011,00:20:49,   0.0,  3.5,  192,+12.6,  91.8,    7.5,  +10.9,  +94.1,  +38.4,+1100.00,4A
23/12/2011,00:21:07,   0.0,  2.5,  191,+12.5,  91.8,    7.4,  +10.8,  +94.0,  +38.3,+1100.00,3E
23/12/2011,00:21:25,   0.0,  7.9,  209,+12.6,  91.8,    7.6,  +11.0,  +94.0,  +39.2,+1100.00,43
23/12/2011,00:21:43,   0.0,  8.4,  193,+12.6,  91.7,    7.6,  +10.9,  +94.1,  +39.2,+1100.00,49
23/12/2011,00:22:09,   0.0,  6.5,  182,+12.6,  91.6,    7.6,  +11.0,  +94.3,  +39.3,+1100.00,43
23/12/2011,00:22:27,   0.0,  7.7,  193,+12.6,  91.5,    7.8,  +11.1,  +94.7,  +38.7,+1100.00,51
23/12/2011,00:22:44,   0.0,  7.9,  193,+12.6,  91.4,    7.8,  +11.0,  +94.5,  +38.6,+1100.00,4D
23/12/2011,00:23:02,   0.0,  3.8,  172,+12.6,  91.4,    7.6,  +11.1,  +94.4,  +38.6,+1100.00,3E
23/12/2011,00:23:28,   0.0,  4.4,  196,+12.7,  91.4,    7.7,  +11.0,  +94.9,  +39.3,+1100.00,4D
23/12/2011,00:23:46,   0.0,  5.7,  191,+12.6,  91.5,    7.6,  +11.1,  +94.1,  +38.5,+1100.00,45
23/12/2011,00:24:04,   0.0,  6.8,  180,+12.6,  91.4,    7.8,  +11.0,  +94.1,  +38.7,+1100.00,42
23/12/2011,00:24:29,   0.0,  3.6,  187,+12.6,  91.5,    7.6,  +11.0,  +94.3,  +39.2,+1100.00,48
23/12/2011,00:24:47,   0.0,  6.1,  179,+12.6,  91.4,    7.5,  +11.0,  +94.2,  +38.3,+1100.00,44
23/12/2011,00:25:05,   0.0,  7.5,  206,+12.6,  91.4,    7.4,  +10.9,  +94.0,  +38.9,+1100.00,46
23/12/2011,00:25:23,   0.0,  7.9,  203,+12.6,  91.4,    7.6,  +11.1,  +94.3,  +38.4,+1100.00,40
23/12/2011,00:25:49,   0.0,  7.3,  169,+12.6,  91.2,    7.7,  +11.1,  +94.3,  +38.4,+1100.00,4C
23/12/2011,00:26:07,   0.0,  5.7,  199,+12.6,  91.3,    7.6,  +11.0,  +93.6,  +38.2,+1100.00,4B
23/12/2011,00:26:25,   0.0,  9.1,  208,+12.6,  91.2,    7.6,  +11.1,  +94.0,  +38.4,+1100.00,3D
23/12/2011,00:26:43,   0.0,  8.0,  201,+12.7,  91.2,    7.7,  +11.0,  +94.0,  +38.9,+1100.00,3A
23/12/2011,00:27:09,   0.0,  4.9,  176,+12.6,  91.1,    7.6,  +11.0,  +94.5,  +39.1,+1100.00,48
23/12/2011,00:27:27,   0.0,  5.2,  206,+12.7,  91.2,    7.9,  +11.1,  +94.0,  +38.5,+1100.00,40
23/12/2011,00:27:44,   0.0,  4.6,  200,+12.7,  91.2,    7.8,  +11.2,  +94.1,  +38.5,+1100.00,3D
23/12/2011,00:28:02,   0.0,  4.7,  187,+12.7,  91.1,    7.8,  +11.1,  +94.7,  +38.7,+1100.00,4D
23/12/2011,00:28:28,   0.0,  9.5,  192,+12.7,  91.1,    7.7,  +11.1,  +95.0,  +39.4,+1100.00,4B
23/12/2011,00:28:46,   0.0,  6.5,  210,+12.7,  91.0,    7.8,  +11.1,  +94.8,  +39.3,+1100.00,45
23/12/2011,00:29:04,   0.0,  6.4,  193,+12.7,  91.0,    7.7,  +11.0,  +94.7,  +38.5,+1100.00,47
23/12/2011,00:29:29,   0.0,  4.9,  189,+12.7,  91.1,    7.7,  +11.0,  +94.3,  +39.3,+1100.00,52
23/12/2011,00:29:47,   0.0,  5.1,  237,+12.8,  91.2,    8.1,  +11.2,  +93.8,  +38.4,+1100.00,48
23/12/2011,00:30:05,   0.0,  5.7,  175,+12.7,  91.1,    7.9,  +11.2,  +94.6,  +38.6,+1100.00,47
23/12/2011,00:30:23,   0.0,  4.3,  202,+12.7,  91.1,    7.7,  +11.1,  +94.7,  +38.3,+1100.00,34
23/12/2011,00:30:49,   0.0,  6.4,  248,+12.8,  91.1,    7.9,  +11.1,  +94.9,  +38.9,+1100.00,54
23/12/2011,00:31:07,   0.0,  4.9,  185,+12.7,  91.1,    7.8,  +11.2,  +94.7,  +38.9,+1100.00,4F
23/12/2011,00:31:25,   0.0,  4.6,  196,+12.7,  91.1,    7.6,  +11.2,  +94.6,  +38.9,+1100.00,4B
23/12/2011,00:31:43,   0.0,  9.8,  203,+12.7,  91.2,    7.9,  +11.2,  +94.6,  +39.1,+1100.00,44
23/12/2011,00:32:09,   0.0,  6.6,  188,+12.7,  91.2,    7.7,  +11.2,  +95.0,  +39.1,+1100.00,47
23/12/2011,00:32:27,   0.0,  4.4,  194,+12.7,  91.2,    7.8,  +11.1,  +94.7,  +39.3,+1100.00,48
23/12/2011,00:32:44,   0.0,  4.5,  160,+12.7,  91.2,    7.8,  +11.2,  +94.9,  +38.8,+1100.00,48
23/12/2011,00:33:02,   0.0,  4.4,  162,+12.6,  91.3,    7.9,  +11.1,  +95.0,  +38.9,+1100.00,3D
23/12/2011,00:33:28,   0.0,  3.3,  198,+12.7,  91.3,    7.7,  +11.1,  +94.3,  +39.5,+1100.00,4A
23/12/2011,00:33:46,   0.0,  7.4,  211,+12.7,  91.4,    8.1,  +11.2,  +94.3,  +38.5,+1100.00,3D
23/12/2011,00:34:04,   0.0,  8.3,  203,+12.7,  91.3,    8.1,  +11.2,  +94.5,  +38.3,+1100.00,38
23/12/2011,00:34:29,   0.0,  5.3,  211,+12.7,  91.2,    7.8,  +11.0,  +93.9,  +39.3,+1100.00,42
23/12/2011,00:34:47,   0.0,  6.5,  214,+12.7,  91.3,    7.9,  +11.1,  +94.7,  +38.4,+1100.00,4A
23/12/2011,00:35:05,   0.0,  6.1,  199,+12.7,  91.3,    7.9,  +11.0,  +94.0,  +38.0,+1100.00,41
23/12/2011,00:35:23,   0.0,  5.9,  198,+12.7,  91.3,    7.5,  +11.1,  +93.9,  +38.5,+1100.00,51
23/12/2011,00:35:49,   0.0,  5.0,  184,+12.7,  91.3,    7.7,  +11.2,  +94.4,  +38.5,+1100.00,4A
23/12/2011,00:36:07,   0.0,  4.8,  182,+12.7,  91.3,    7.8,  +11.2,  +94.3,  +38.5,+1100.00,4A
23/12/2011,00:36:25,   0.0,  5.8,  166,+12.7,  91.5,    7.7,  +11.2,  +94.5,  +39.3,+1100.00,4F
23/12/2011,00:36:43,   0.0,  7.8,  203,+12.7,  91.5,    8.1,  +11.3,  +94.5,  +38.8,+1100.00,49
23/12/2011,00:37:09,   0.0,  4.2,  215,+12.8,  91.5,    7.8,  +11.1,  +94.5,  +39.3,+1100.00,47
23/12/2011,00:37:27,   0.0,  4.2,  207,+12.7,  91.5,    8.0,  +11.2,  +94.6,  +38.4,+1100.00,42
23/12/2011,00:37:44,   0.0,  7.0,  192,+12.7,  91.5,    7.8,  +11.3,  +94.5,  +38.9,+1100.00,51
23/12/2011,00:38:02,   0.0,  5.2,  184,+12.7,  91.5,    7.5,  +11.1,  +94.1,  +39.5,+1100.00,41
23/12/2011,00:38:28,   0.0,  7.6,  190,+12.7,  91.5,    7.9,  +11.1,  +94.4,  +39.3,+1100.00,51
23/12/2011,00:38:46,   0.0,  5.8,  204,+12.7,  91.5,    7.9,  +11.1,  +94.4,  +38.5,+1100.00,4E
23/12/2011,00:39:04,   0.0,  6.4,  206,+12.7,  91.6,    8.1,  +11.1,  +94.3,  +38.2,+1100.00,3E
23/12/2011,00:39:29,   0.0,  5.2,  191,+12.7,  91.7,    8.1,  +11.2,  +95.1,  +39.5,+1100.00,4A
23/12/2011,00:39:47,   0.0,  4.9,  198,+12.7,  91.7,    7.8,  +11.2,  +94.9,  +38.8,+1100.00,66
23/12/2011,00:40:05,   0.0,  6.5,  189,+12.7,  91.7,    7.9,  +11.2,  +95.2,  +38.5,+1100.00,4E
23/12/2011,00:40:23,   0.0,  6.2,  212,+12.7,  91.8,    7.7,  +11.2,  +94.9,  +38.4,+1100.00,42
23/12/2011,00:40:49,   0.0,  7.8,  212,+12.7,  91.8,    7.7,  +11.2,  +95.1,  +38.8,+1100.00,4E
23/12/2011,00:41:07,   0.0,  4.8,  218,+12.7,  91.9,    8.1,  +11.2,  +95.2,  +39.1,+1100.00,43
23/12/2011,00:41:25,   0.0,  5.5,  206,+12.7,  92.0,    7.9,  +11.3,  +95.0,  +38.9,+1100.00,43
23/12/2011,00:41:43,   0.0,  4.9,  195,+12.7,  92.1,    7.7,  +11.1,  +95.6,  +39.3,+1100.00,4B
23/12/2011,00:42:09,   0.0,  6.0,  197,+12.7,  92.1,    7.8,  +11.2,  +95.4,  +39.4,+1100.00,4A
23/12/2011,00:42:27,   0.0,  6.2,  215,+12.7,  92.2,    7.9,  +11.2,  +95.3,  +38.9,+1100.00,48
23/12/2011,00:42:44,   0.0,  5.2,  200,+12.7,  92.2,    7.9,  +11.3,  +95.2,  +39.0,+1100.00,38
23/12/2011,00:43:02,   0.0,  4.3,  170,+12.6,  92.3,    7.9,  +11.3,  +94.8,  +38.4,+1100.00,41
23/12/2011,00:43:28,   0.0,  4.4,  188,+12.7,  92.4,    7.8,  +11.2,  +95.5,  +39.7,+1100.00,55
23/12/2011,00:43:46,   0.0,  4.2,  214,+12.7,  92.5,    8.0,  +11.2,  +95.1,  +39.6,+1100.00,3E
23/12/2011,00:44:04,   0.0,  9.3,  200,+12.7,  92.5,    7.9,  +11.3,  +95.2,  +38.6,+1100.00,43
23/12/2011,00:44:29,   0.0,  5.6,  238,+12.8,  92.6,    8.2,  +11.2,  +94.9,  +39.7,+1100.00,57
23/12/2011,00:44:47,   0.0,  5.4,  192,+12.7,  92.6,    7.9,  +11.2,  +95.2,  +38.7,+1100.00,52
23/12/2011,00:45:05,   0.0,  7.4,  206,+12.7,  92.7,    8.0,  +11.0,  +95.1,  +38.9,+1100.00,43
23/12/2011,00:45:23,   0.0,  5.4,  176,+12.6,  92.7,    7.8,  +11.2,  +95.5,  +39.0,+1100.00,4B
23/12/2011,00:45:49,   0.0,  5.6,  205,+12.6,  92.8,    7.8,  +11.1,  +95.7,  +39.1,+1100.00,51
23/12/2011,00:46:07,   0.0,  4.2,  211,+12.6,  92.8,    8.2,  +11.3,  +95.8,  +38.7,+1100.00,47
23/12/2011,00:46:25,   0.0,  6.0,  212,+12.6,  92.9,    8.1,  +11.3,  +95.4,  +39.4,+1100.00,42
23/12/2011,00:46:43,   0.0,  8.1,  195,+12.7,  92.9,    8.3,  +11.3,  +95.5,  +39.3,+1100.00,52
23/12/2011,00:47:09,   0.0,  4.0,  208,+12.7,  93.0,    7.9,  +11.1,  +95.3,  +39.6,+1100.00,47
23/12/2011,00:47:27,   0.0,  5.6,  198,+12.7,  93.0,    7.8,  +11.2,  +95.2,  +39.4,+1100.00,53
23/12/2011,00:47:44,   0.0,  3.7,  219,+12.6,  93.1,    7.9,  +11.2,  +94.6,  +38.8,+1100.00,52
23/12/2011,00:48:02,   0.0,  5.2,  205,+12.6,  93.1,    8.1,  +11.2,  +94.7,  +39.0,+1100.00,38
23/12/2011,00:48:28,   0.0,  6.6,  207,+12.7,  93.2,    8.0,  +11.1,  +94.8,  +39.6,+1100.00,4E
23/12/2011,00:48:46,   0.0,  5.7,  219,+12.6,  93.3,    8.4,  +11.3,  +94.7,  +38.4,+1100.00,53
23/12/2011,00:49:04,   0.0,  4.9,  194,+12.6,  93.2,    7.9,  +11.3,  +95.3,  +39.4,+1100.00,52
23/12/2011,00:49:29,   0.0,  5.9,  219,+12.7,  93.4,    8.1,  +11.3,  +95.3,  +39.5,+1100.00,55
23/12/2011,00:49:47,   0.0,  5.5,  207,+12.6,  93.4,    8.0,  +11.3,  +94.9,  +38.9,+1100.00,54
23/12/2011,00:50:05,   0.0,  5.9,  202,+12.6,  93.4,    8.1,  +11.3,  +95.1,  +38.5,+1100.00,3B
23/12/2011,00:50:23,   0.0,  8.2,  211,+12.6,  93.5,    7.9,  +11.3,  +95.8,  +38.7,+1100.00,48
23/12/2011,00:50:49,   0.0,  5.5,  220,+12.6,  93.5,    8.1,  +11.2,  +95.5,  +38.9,+1100.00,47
23/12/2011,00:51:07,   0.0,  7.5,  205,+12.6,  93.6,    8.4,  +11.4,  +95.1,  +38.6,+1100.00,46
23/12/2011,00:51:25,   0.0,  5.6,  238,+12.6,  93.7,    8.3,  +11.3,  +95.3,  +38.7,+1100.00,4D
23/12/2011,00:51:43,   0.0,  4.3,  248,+12.6,  93.8,    8.4,  +11.2,  +95.5,  +39.3,+1100.00,4A
23/12/2011,00:52:09,   0.0,  6.3,  207,+12.6,  93.8,    8.2,  +11.3,  +95.7,  +39.7,+1100.00,4F
23/12/2011,00:52:27,   0.0,  5.0,  246,+12.6,  93.8,    8.4,  +11.3,  +95.6,  +39.0,+1100.00,48
23/12/2011,00:52:44,   0.0,  4.0,  229,+12.6,  93.9,    8.4,  +11.3,  +94.9,  +38.6,+1100.00,4F
23/12/2011,00:53:02,   0.0,  3.9,  180,+12.5,  93.9,    8.0,  +11.3,  +95.1,  +39.4,+1100.00,41
23/12/2011,00:53:28,   0.0,  3.1,  215,+12.6,  94.0,    8.2,  +11.3,  +95.4,  +39.7,+1100.00,41
23/12/2011,00:53:46,   0.0,  3.7,  256,+12.6,  94.1,    8.2,  +11.2,  +95.4,  +39.6,+1100.00,4B
23/12/2011,00:54:04,   0.0,  2.3,  244,+12.6,  94.1,    8.2,  +11.2,  +94.9,  +38.4,+1100.00,3F
23/12/2011,00:54:29,   0.0,  2.3,  251,+12.6,  94.2,    8.3,  +11.2,  +94.7,  +39.5,+1100.00,46
23/12/2011,00:54:47,   0.0,  2.6,  262,+12.6,  94.3,    8.5,  +11.4,  +95.6,  +38.7,+1100.00,51
23/12/2011,00:55:05,   0.0,  5.1,  207,+12.6,  94.2,    8.3,  +11.3,  +95.3,  +38.6,+1100.00,41
23/12/2011,00:55:23,   0.0,  3.8,  243,+12.6,  94.3,    8.2,  +11.3,  +95.3,  +38.8,+1100.00,48
23/12/2011,00:55:49,   0.2,  6.3,  233,+12.5,  94.4,    8.2,  +11.2,  +95.4,  +38.2,+1100.00,49
23/12/2011,00:56:07,   0.2,  4.9,  242,+12.6,  94.5,    8.5,  +11.3,  +95.0,  +38.3,+1100.00,4B
23/12/2011,00:56:25,   0.2,  3.3,  226,+12.5,  94.6,    8.3,  +11.2,  +95.6,  +39.4,+1100.00,4B
23/12/2011,00:56:43,   0.2,  3.5,  281,+12.6,  94.7,    8.5,  +11.2,  +95.0,  +39.5,+1100.00,4D
23/12/2011,00:57:09,   0.2,  3.3,  268,+12.7,  94.8,    8.4,  +11.3,  +94.4,  +39.3,+1100.00,56
23/12/2011,00:57:27,   0.2,  7.4,  222,+12.5,  94.7,    8.4,  +11.5,  +95.3,  +39.5,+1100.00,52
23/12/2011,00:57:44,   0.2,  4.5,  255,+12.6,  94.4,    8.4,  +11.3,  +95.0,  +38.2,+1100.00,4A
23/12/2011,00:58:02,   0.2,  3.9,  254,+12.5,  93.8,    8.2,  +11.3,  +95.0,  +39.3,+1100.00,49
23/12/2011,00:58:28,   0.2,  5.3,  249,+12.5,  93.4,    8.4,  +11.3,  +95.1,  +39.3,+1100.00,50
23/12/2011,00:58:46,   0.2,  6.7,  263,+12.4,  92.5,    8.2,  +11.4,  +94.9,  +38.8,+1100.00,5A
23/12/2011,00:59:04,   0.2,  3.5,  254,+12.4,  92.2,    8.4,  +11.3,  +94.9,  +38.4,+1100.00,4A
23/12/2011,00:59:29,   0.4,  4.4,  258,+12.3,  92.2,    8.4,  +11.2,  +95.5,  +39.5,+1100.00,54
23/12/2011,00:59:47,   0.4,  4.0,  262,+12.3,  92.3,    8.4,  +11.1,  +95.1,  +38.4,+1100.00,45
23/12/2011,01:00:05,   0.4,  6.3,  257,+12.2,  92.3,    8.2,  +11.1,  +95.1,  +38.8,+1100.00,3C
23/12/2011,01:00:23,   0.6,  6.8,  270,+12.2,  91.8,    8.4,  +11.2,  +94.8,  +38.0,+1100.00,43
23/12/2011,01:00:49,   0.6,  4.4,  280,+12.1,  91.2,    8.3,  +11.1,  +95.4,  +37.6,+1100.00,3F
23/12/2011,01:01:07,   0.6,  4.3,  266,+12.1,  91.0,    8.2,  +11.1,  +94.9,  +39.5,+1100.00,3F
23/12/2011,01:01:25,   0.8,  2.6,  257,+12.0,  91.1,    8.1,  +11.3,  +94.7,  +38.5,+1100.00,40
23/12/2011,01:01:43,   0.8,  3.2,  266,+12.0,  91.4,    8.4,  +11.3,  +94.5,  +37.6,+1100.00,41
23/12/2011,01:02:09,   0.8,  4.5,  273,+11.9,  91.1,    8.0,  +11.1,  +94.6,  +39.2,+1100.00,44
23/12/2011,01:02:27,   0.8,  2.8,  257,+11.9,  91.2,    8.1,  +11.3,  +94.6,  +37.8,+1100.00,4F
23/12/2011,01:02:45,   0.8,  2.6,  237,+11.8,  91.4,    8.3,  +11.2,  +95.0,  +39.0,+1100.00,42
23/12/2011,01:03:02,   0.8,  2.7,  257,+11.8,  91.5,    8.4,  +11.3,  +93.9,  +38.8,+1100.00,50
23/12/2011,01:03:28,   0.8,  2.7,  275,+11.8,  91.6,    8.3,  +11.4,  +94.8,  +39.2,+1100.00,54
23/12/2011,01:03:46,   0.8,  1.7,  262,+11.8,  91.8,    8.5,  +11.4,  +95.1,  +39.0,+1100.00,4B
23/12/2011,01:04:04,   0.8,  4.5,  284,+11.8,  92.0,    8.3,  +11.3,  +94.8,  +38.4,+1100.00,4A
23/12/2011,01:04:22,   0.8,  4.2,  263,+11.7,  92.0,    8.1,  +11.2,  +94.7,  +38.4,+1100.00,3F
23/12/2011,01:04:48,   0.8,  3.1,  281,+11.7,  92.1,    8.2,  +11.4,  +94.9,  +39.1,+1100.00,49
23/12/2011,01:05:06,   0.8,  3.2,  257,+11.6,  92.1,    8.2,  +11.3,  +94.6,  +38.7,+1100.00,48
23/12/2011,01:05:24,   0.8,  2.6,  255,+11.6,  92.3,    8.2,  +11.2,  +94.5,  +38.2,+1100.00,44
23/12/2011,01:05:42,   0.8,  2.2,  242,+11.6,  92.4,    8.1,  +11.2,  +94.8,  +38.3,+1100.00,40
23/12/2011,01:06:08,   0.8,  1.7,  281,+11.7,  92.6,    8.4,  +11.3,  +94.8,  +38.3,+1100.00,51
23/12/2011,01:06:26,   0.8,  3.3,  279,+11.6,  92.7,    8.8,  +11.4,  +94.0,  +38.6,+1100.00,56
23/12/2011,01:06:44,   1.0,  1.8,  246,+11.6,  92.7,    8.3,  +11.2,  +94.1,  +38.3,+1100.00,43
23/12/2011,01:07:02,   1.0,  1.6,  234,+11.5,  92.7,    8.1,  +11.2,  +94.2,  +38.0,+1100.00,34
23/12/2011,01:07:28,   1.0,  2.2,  257,+11.6,  92.7,    8.1,  +11.3,  +94.5,  +38.3,+1100.00,46
23/12/2011,01:07:46,   1.0,  1.2,  221,+11.5,  92.8,    8.4,  +11.4,  +94.1,  +38.5,+1100.00,3E
23/12/2011,01:08:04,   1.0,  2.0,  197,+11.5,  92.8,    8.1,  +11.3,  +94.3,  +38.3,+1100.00,40
23/12/2011,01:08:22,   1.0,  1.1,  194,+11.5,  92.9,    8.1,  +11.1,  +94.4,  +37.7,+1100.00,40
23/12/2011,01:08:48,   1.0,  3.1,  255,+11.5,  92.9,    8.2,  +11.2,  +94.4,  +38.3,+1100.00,47
23/12/2011,01:09:06,   1.0,  3.0,  179,+11.5,  92.8,    7.9,  +11.4,  +94.2,  +38.4,+1100.00,4C
23/12/2011,01:09:24,   1.0,  3.9,  236,+11.5,  92.9,    8.3,  +11.4,  +93.8,  +38.5,+1100.00,51
23/12/2011,01:09:42,   1.0,  3.5,  246,+11.4,  92.9,    8.2,  +11.2,  +94.0,  +37.3,+1100.00,40
23/12/2011,01:10:08,   1.0,  2.7,  247,+11.4,  92.8,    8.4,  +11.4,  +93.5,  +38.5,+1100.00,46
23/12/2011,01:10:26,   1.0,  2.6,  225,+11.4,  92.9,    8.4,  +11.2,  +94.1,  +38.4,+1100.00,3C
23/12/2011,01:10:44,   1.0,  1.5,  272,+11.4,  93.0,    8.1,  +11.2,  +93.6,  +37.3,+1100.00,33
23/12/2011,01:11:02,   1.0,  1.9,  228,+11.4,  93.1,    8.3,  +11.4,  +94.1,  +37.8,+1100.00,39
23/12/2011,01:11:28,   1.0,  2.3,  249,+11.4,  93.1,    8.0,  +11.2,  +94.1,  +38.3,+1100.00,36
23/12/2011,01:11:46,   1.0,  3.0,  270,+11.4,  93.1,    8.0,  +11.1,  +93.4,  +38.1,+1100.00,2D
23/12/2011,01:12:04,   1.0,  1.8,  265,+11.4,  93.1,    8.2,  +11.2,  +93.5,  +37.9,+1100.00,3D
23/12/2011,01:12:29,   1.0,  2.6,  229,+11.3,  93.2,    8.1,  +11.3,  +93.9,  +38.3,+1100.00,42
23/12/2011,01:12:47,   1.0,  1.9,  249,+11.4,  93.3,    8.1,  +11.2,  +93.9,  +37.0,+1100.00,43
23/12/2011,01:13:05,   1.0,  2.4,  236,+11.3,  93.3,    8.1,  +11.2,  +93.6,  +37.6,+1100.00,38
23/12/2011,01:13:23,   1.0,  2.7,  268,+11.4,  93.4,    8.2,  +11.2,  +93.5,  +38.0,+1100.00,3D
23/12/2011,01:13:49,   1.0,  2.8,  266,+11.4,  93.3,    8.1,  +11.1,  +94.1,  +38.4,+1100.00,42
23/12/2011,01:14:07,   1.0,  1.3,  255,+11.3,  93.3,    8.0,  +11.1,  +94.0,  +38.6,+1100.00,34
23/12/2011,01:14:25,   1.0,  2.5,  275,+11.3,  93.3,    8.2,  +11.2,  +93.8,  +37.5,+1100.00,41
23/12/2011,01:14:43,   1.0,  2.1,  246,+11.3,  93.3,    8.2,  +11.3,  +94.3,  +37.2,+1100.00,35
23/12/2011,01:15:09,   1.0,  2.8,  224,+11.2,  93.4,    8.0,  +11.2,  +96.1,  +37.9,+1100.00,3F
23/12/2011,01:15:27,   1.0,  2.1,  198,+11.2,  93.5,    8.0,  +11.3,  +94.6,  +38.7,+1100.00,46
23/12/2011,01:15:45,   1.0,  2.0,  236,+11.2,  93.6,    8.4,  +11.2,  +94.1,  +36.7,+1100.00,3B
23/12/2011,01:16:03,   1.0,  0.3,  211,+11.2,  93.6,    7.6,  +11.0,  +93.5,  +37.2,+1100.00,2E
23/12/2011,01:16:29,   1.0,  2.1,  250,+11.2,  93.7,    8.0,  +11.1,  +93.0,  +38.0,+1100.00,30
23/12/2011,01:16:47,   1.0,  2.4,  267,+11.2,  93.7,    7.9,  +11.0,  +92.8,  +37.1,+1100.00,49
23/12/2011,01:17:05,   1.0,  1.9,  242,+11.2,  93.8,    7.8,  +11.0,  +93.0,  +37.6,+1100.00,3F
23/12/2011,01:17:22,   1.0,  2.1,  223,+11.1,  93.7,    8.0,  +11.3,  +93.2,  +37.7,+1100.00,33
23/12/2011,01:17:48,   1.0,  1.3,  249,+10.9,  93.9,    8.0,  +11.2,  +93.3,  +38.4,+1100.00,4B
23/12/2011,01:18:06,   1.0,  1.3,  231,+11.2,  93.9,    8.2,  +11.2,  +93.2,  +37.9,+1100.00,3C
23/12/2011,01:18:24,   1.0,  1.6,  247,+11.2,  93.9,    8.0,  +11.1,  +93.0,  +38.2,+1100.00,3B
23/12/2011,01:18:42,   1.0,  3.7,  251,+11.2,  93.8,    7.8,  +11.1,  +93.4,  +37.2,+1100.00,42
23/12/2011,01:19:08,   1.0,  1.7,  247,+11.1,  93.9,    7.8,  +11.2,  +93.4,  +37.5,+1100.00,4C
23/12/2011,01:19:26,   1.0,  2.5,  200,+11.1,  93.9,    7.9,  +11.2,  +94.0,  +38.0,+1100.00,3A
23/12/2011,01:19:44,   1.0,  2.8,  257,+11.2,  94.1,    8.1,  +11.0,  +93.6,  +37.1,+1100.00,3F
23/12/2011,01:20:02,   1.0,  3.5,  237,+11.1,  94.1,    7.8,  +11.0,  +93.7,  +37.3,+1100.00,35
23/12/2011,01:20:28,   1.0,  1.9,  202,+11.1,  94.0,    7.7,  +10.9,  +93.9,  +38.1,+1100.00,3E
23/12/2011,01:20:46,   1.0,  1.8,  210,+11.1,  94.0,    7.8,  +11.0,  +94.3,  +38.4,+1100.00,33
23/12/2011,01:21:04,   1.0,  1.6,  225,+11.1,  94.1,    7.7,  +11.0,  +93.1,  +38.0,+1100.00,2B
23/12/2011,01:21:29,   1.0,  1.7,  209,+11.1,  94.2,    7.9,  +11.2,  +93.6,  +38.5,+1100.00,44
23/12/2011,01:21:47,   1.0,  1.3,  257,+11.1,  94.3,    7.8,  +11.0,  +92.9,  +37.2,+1100.00,3F
23/12/2011,01:22:05,   1.0,  1.2,  261,+11.1,  94.3,    8.0,  +11.0,  +92.8,  +37.1,+1100.00,2B